QPF
0.00 0.00 0.01 0.00 0.00 0.01 0.01 0.01 0.00 0.00 0.00 0.00 0.01 0.01 0.01 0.01 0.01 0.01 0.00 0.00 0.00 0.00 0.00 0.00 0.00 0.00 0.00 0.00 0.00 0.01 0.01 0.01 0.02 0.03 0.03 0.03 0.03 0.03 0.03 0.03 0.02 0.02 0.02 0.02
0.00 0.00 0.01 0.00 0.00 0.00 0.00 0.01 0.01 0.00 0.00 0.00 0.00 0.00 0.00 0.00 0.00 0.00 0.01 0.00 0.00 0.01 0.01 0.01 0.00 0.00 0.00 0.00 0.00 0.01 0.01 0.01 0.02 0.03 0.03 0.03 0.03 0.03 0.03 0.02 0.02 0.01 0.01 0.01
0.00 0.01 0.00 0.00 0.00 0.00 0.00 0.01 0.01 0.00 0.00 0.00 0.00 0.01 0.00 0.00 0.00 0.00 0.00 0.01 0.01 0.00 0.01 0.01 0.01 0.01 0.00 0.01 0.01 0.01 0.01 0.02 0.03 0.04 0.04 0.04 0.05 0.04 0.04 0.03 0.02 0.01 0.01 0.01
0.00 0.00 0.00 0.00 0.00 0.00 0.01 0.01 0.00 0.00 0.00 0.01 0.01 0.02 0.02 0.01 0.01 0.00 0.00 0.00 0.01 0.00 0.01 0.01 0.01 0.01 0.01 0.01 0.01 0.01 0.01 0.02 0.02 0.03 0.04 0.04 0.04 0.03 0.04 0.05 0.05 0.04 0.04 0.04
0.00 0.00 0.00 0.00 0.00 0.00 0.00 0.00 0.00 0.00 0.00 0.01 0.02 0.02 0.02 0.01 0.02 0.01 0.00 0.00 0.01 0.00 0.00 0.01 0.01 0.01 0.01 0.01 0.01 0.01 0.01 0.01 0.02 0.03 0.04 0.04 0.03 0.04 0.05 0.05 0.06 0.06 0.05 0.04
0.00 0.00 0.00 0.00 0.00 0.00 0.00 0.00 0.00 0.01 0.01 0.04 0.04 0.02 0.03 0.01 0.01 0.00 0.00 0.00 0.00 0.00 0.00 0.01 0.01 0.01 0.00 0.01 0.01 0.01 0.01 0.01 0.02 0.02 0.02 0.03 0.03 0.04 0.06 0.06 0.09 0.09 0.08 0.06
0.00 0.00 0.00 0.00 0.00 0.00 0.00 0.00 0.02 0.06 0.08 0.06 0.03 0.02 0.03 0.01 0.01 0.02 0.02 0.01 0.00 0.00 0.00 0.00 0.01 0.01 0.01 0.01 0.01 0.01 0.02 0.03 0.02 0.02 0.01 0.02 0.03 0.05 0.06 0.07 0.09 0.08 0.08 0.08
0.00 0.00 0.00 0.00 0.00 0.00 0.00 0.00 0.02 0.04 0.05 0.04 0.02 0.02 0.03 0.03 0.02 0.01 0.02 0.00 0.00 0.00 0.00 0.00 0.00 0.00 0.01 0.02 0.01 0.01 0.03 0.03 0.04 0.03 0.03 0.03 0.04 0.06 0.08 0.07 0.06 0.06 0.06 0.06
0.00 0.01 0.00 0.00 0.00 0.00 0.00 0.00 0.00 0.00 0.01 0.03 0.03 0.03 0.03 0.03 0.02 0.02 0.01 0.00 0.00 0.00 0.00 0.00 0.00 0.00 0.00 0.01 0.01 0.01 0.02 0.04 0.06 0.07 0.06 0.05 0.05 0.05 0.06 0.06 0.05 0.05 0.04 0.05
0.00 0.01 0.01 0.00 0.00 0.00 0.00 0.00 0.00 0.00 0.02 0.03 0.03 0.04 0.03 0.02 0.02 0.03 0.05 0.01 0.00 0.00 0.00 0.00 0.00 0.01 0.00 0.00 0.00 0.01 0.01 0.04 0.05 0.06 0.07 0.06 0.06 0.06 0.07 0.06 0.08 0.07 0.04 0.04
0.00 0.00 0.00 0.00 0.00 0.00 0.00 0.00 0.00 0.00 0.00 0.01 0.03 0.04 0.01 0.01 0.02 0.06 0.04 0.01 0.00 0.00 0.00 0.00 0.00 0.00 0.01 0.01 0.01 0.01 0.01 0.03 0.03 0.04 0.04 0.06 0.07 0.06 0.06 0.05 0.05 0.05 0.05 0.04
0.00 0.00 0.00 0.00 0.00 0.00 0.00 0.00 0.00 0.00 0.00 0.00 0.01 0.03 0.02 0.02 0.04 0.06 0.03 0.00 0.00 0.00 0.00 0.00 0.00 0.00 0.00 0.00 0.01 0.02 0.02 0.03 0.04 0.05 0.06 0.06 0.06 0.06 0.07 0.06 0.06 0.05 0.05 0.05
0.00 0.00 0.01 0.01 0.00 0.00 0.00 0.00 0.00 0.00 0.00 0.00 0.02 0.03 0.01 0.01 0.01 0.01 0.01 0.00 0.00 0.00 0.00 0.00 0.00 0.00 0.00 0.00 0.00 0.01 0.03 0.04 0.05 0.06 0.09 0.08 0.06 0.05 0.05 0.06 0.06 0.06 0.06 0.05
0.00 0.00 0.00 0.01 0.01 0.01 0.01 0.01 0.01 0.00 0.00 0.01 0.03 0.02 0.00 0.01 0.01 0.02 0.02 0.00 0.00 0.00 0.00 0.00 0.00 0.00 0.00 0.01 0.01 0.01 0.01 0.03 0.04 0.04 0.06 0.06 0.05 0.04 0.04 0.05 0.06 0.06 0.06 0.06
0.00 0.00 0.00 0.00 0.00 0.00 0.00 0.00 0.00 0.01 0.00 0.00 0.01 0.01 0.00 0.01 0.01 0.01 0.01 0.01 0.01 0.00 0.00 0.00 0.00 0.00 0.00 0.01 0.01 0.01 0.01 0.03 0.03 0.02 0.02 0.03 0.05 0.05 0.05 0.06 0.06 0.05 0.04 0.05
0.00 0.00 0.00 0.00 0.00 0.00 0.01 0.01 0.01 0.01 0.00 0.00 0.01 0.01 0.01 0.01 0.01 0.01 0.01 0.02 0.03 0.01 0.00 0.00 0.00 0.00 0.01 0.01 0.01 0.01 0.01 0.02 0.02 0.02 0.01 0.01 0.03 0.05 0.07 0.11 0.11 0.07 0.04 0.04
0.00 0.01 0.01 0.00 0.00 0.00 0.01 0.01 0.01 0.01 0.00 0.00 0.00 0.01 0.02 0.02 0.01 0.00 0.01 0.02 0.02 0.01 0.00 0.00 0.00 0.01 0.01 0.01 0.01 0.01 0.02 0.02 0.02 0.02 0.01 0.02 0.02 0.02 0.03 0.05 0.06 0.06 0.05 0.04
0.00 0.01 0.01 0.01 0.00 0.00 0.01 0.01 0.01 0.01 0.01 0.01 0.01 0.01 0.01 0.02 0.01 0.01 0.01 0.01 0.02 0.02 0.01 0.00 0.01 0.02 0.02 0.02 0.02 0.02 0.02 0.01 0.02 0.02 0.02 0.02 0.02 0.02 0.02 0.03 0.03 0.03 0.04 0.04
0.00 0.00 0.01 0.00 0.01 0.01 0.01 0.01 0.01 0.01 0.01 0.02 0.02 0.02 0.01 0.01 0.01 0.01 0.01 0.01 0.01 0.01 0.01 0.01 0.01 0.01 0.01 0.01 0.01 0.01 0.01 0.01 0.01 0.01 0.01 0.01 0.01 0.02 0.02 0.02 0.02 0.03 0.03 0.03
0.00 0.00 0.01 0.00 0.01 0.02 0.02 0.01 0.02 0.02 0.02 0.01 0.01 0.02 0.01 0.01 0.02 0.03 0.02 0.01 0.01 0.01 0.01 0.01 0.01 0.01 0.02 0.02 0.02 0.01 0.01 0.01 0.01 0.01 0.01 0.01 0.01 0.01 0.02 0.03 0.02 0.02 0.02 0.02
0.00 0.00 0.01 0.01 0.01 0.02 0.01 0.00 0.01 0.03 0.03 0.01 0.00 0.01 0.02 0.02 0.02 0.03 0.03 0.01 0.01 0.01 0.01 0.01 0.01 0.02 0.02 0.02 0.02 0.01 0.01 0.01 0.01 0.01 0.01 0.01 0.01 0.01 0.02 0.02 0.02 0.02 0.02 0.02
0.01 0.01 0.01 0.01 0.02 0.02 0.01 0.01 0.01 0.02 0.01 0.01 0.01 0.01 0.02 0.02 0.04 0.05 0.06 0.02 0.01 0.01 0.02 0.02 0.02 0.02 0.02 0.02 0.02 0.02 0.02 0.02 0.01 0.02 0.02 0.02 0.02 0.02 0.02 0.03 0.03 0.02 0.02 0.02
0.02 0.01 0.01 0.03 0.03 0.02 0.01 0.01 0.01 0.00 0.01 0.02 0.02 0.02 0.02 0.02 0.07 0.08 0.07 0.03 0.02 0.01 0.02 0.03 0.04 0.04 0.03 0.03 0.02 0.02 0.03 0.03 0.03 0.02 0.02 0.03 0.03 0.03 0.02 0.02 0.02 0.02 0.03 0.03
0.01 0.01 0.01 0.02 0.02 0.01 0.01 0.01 0.01 0.01 0.01 0.03 0.03 0.03 0.02 0.02 0.05 0.07 0.04 0.03 0.03 0.03 0.03 0.04 0.06 0.06 0.05 0.04 0.03 0.02 0.02 0.03 0.04 0.03 0.02 0.03 0.03 0.03 0.02 0.02 0.02 0.02 0.03 0.03
0.02 0.01 0.01 0.01 0.02 0.01 0.02 0.01 0.01 0.01 0.02 0.03 0.02 0.01 0.01 0.02 0.02 0.02 0.03 0.03 0.04 0.04 0.03 0.05 0.06 0.06 0.06 0.05 0.04 0.03 0.03 0.03 0.04 0.04 0.03 0.03 0.03 0.03 0.03 0.02 0.02 0.02 0.02 0.02
0.01 0.01 0.01 0.02 0.01 0.01 0.01 0.01 0.01 0.00 0.02 0.03 0.02 0.02 0.02 0.01 0.01 0.02 0.03 0.02 0.03 0.03 0.03 0.03 0.04 0.04 0.05 0.04 0.04 0.03 0.03 0.03 0.03 0.03 0.03 0.03 0.03 0.03 0.03 0.03 0.02 0.02 0.02 0.02
MSLP
1004.33 1004.81 1005.19 1005.45 1005.63 1005.76 1005.89 1006.01 1006.15 1006.28 1006.39 1006.45 1006.45 1006.39 1006.30 1006.22 1006.19 1006.25 1006.41 1006.68 1007.04 1007.46 1007.90 1008.34 1008.74 1009.10 1009.43 1009.74 1010.05 1010.37 1010.70 1011.05 1011.38 1011.69 1011.94 1012.11 1012.20 1012.22 1012.17 1012.09 1012.00 1011.92 1011.88 1011.89
1005.15 1005.44 1005.58 1005.61 1005.57 1005.55 1005.57 1005.68 1005.86 1006.08 1006.29 1006.45 1006.51 1006.46 1006.34 1006.19 1006.06 1006.01 1006.08 1006.30 1006.64 1007.09 1007.58 1008.08 1008.53 1008.94 1009.28 1009.59 1009.88 1010.18 1010.51 1010.87 1011.25 1011.61 1011.93 1012.16 1012.30 1012.33 1012.26 1012.13 1011.98 1011.84 1011.74 1011.71
1005.80 1005.89 1005.82 1005.65 1005.46 1005.34 1005.33 1005.48 1005.75 1006.09 1006.42 1006.66 1006.76 1006.71 1006.52 1006.25 1006.00 1005.82 1005.79 1005.94 1006.27 1006.74 1007.29 1007.85 1008.37 1008.82 1009.19 1009.49 1009.75 1010.03 1010.34 1010.70 1011.10 1011.50 1011.87 1012.17 1012.35 1012.41 1012.34 1012.19 1011.99 1011.80 1011.66 1011.60
1006.21 1006.13 1005.90 1005.60 1005.33 1005.18 1005.23 1005.47 1005.88 1006.35 1006.79 1007.10 1007.22 1007.11 1006.82 1006.40 1005.98 1005.65 1005.50 1005.58 1005.88 1006.37 1006.98 1007.61 1008.21 1008.71 1009.10 1009.40 1009.65 1009.89 1010.17 1010.52 1010.92 1011.36 1011.77 1012.12 1012.36 1012.45 1012.40 1012.24 1012.02 1011.80 1011.63 1011.55
1006.35 1006.15 1005.82 1005.46 1005.19 1005.11 1005.26 1005.65 1006.21 1006.82 1007.36 1007.72 1007.81 1007.62 1007.18 1006.58 1005.97 1005.47 1005.18 1005.17 1005.44 1005.94 1006.60 1007.31 1007.97 1008.54 1008.96 1009.27 1009.51 1009.72 1009.98 1010.30 1010.71 1011.16 1011.61 1012.01 1012.29 1012.43 1012.41 1012.27 1012.05 1011.82 1011.63 1011.53
1006.27 1005.99 1005.62 1005.28 1005.08 1005.11 1005.41 1005.97 1006.68 1007.42 1008.04 1008.40 1008.44 1008.12 1007.52 1006.73 1005.92 1005.23 1004.80 1004.69 1004.91 1005.42 1006.12 1006.89 1007.63 1008.25 1008.73 1009.06 1009.29 1009.49 1009.73 1010.03 1010.43 1010.89 1011.37 1011.80 1012.13 1012.32 1012.34 1012.23 1012.03 1011.80 1011.61 1011.50
1006.03 1005.72 1005.36 1005.08 1004.99 1005.17 1005.63 1006.35 1007.20 1008.02 1008.68 1009.02 1008.98 1008.53 1007.76 1006.78 1005.78 1004.93 1004.36 1004.15 1004.32 1004.82 1005.55 1006.37 1007.16 1007.84 1008.36 1008.73 1008.97 1009.17 1009.40 1009.69 1010.08 1010.55 1011.04 1011.50 1011.86 1012.09 1012.15 1012.08 1011.91 1011.70 1011.52 1011.40
1005.74 1005.42 1005.10 1004.92 1004.95 1005.27 1005.88 1006.71 1007.65 1008.52 1009.17 1009.46 1009.32 1008.75 1007.83 1006.71 1005.56 1004.57 1003.89 1003.60 1003.71 1004.19 1004.92 1005.76 1006.59 1007.32 1007.88 1008.28 1008.55 1008.76 1008.99 1009.29 1009.67 1010.13 1010.63 1011.10 1011.49 1011.75 1011.85 1011.82 1011.68 1011.50 1011.33 1011.22
1005.48 1005.18 1004.93 1004.84 1004.98 1005.41 1006.10 1007.00 1007.95 1008.81 1009.41 1009.63 1009.40 1008.73 1007.72 1006.49 1005.26 1004.19 1003.44 1003.09 1003.15 1003.59 1004.30 1005.14 1005.98 1006.73 1007.32 1007.75 1008.06 1008.30 1008.55 1008.85 1009.23 1009.69 1010.18 1010.65 1011.05 1011.32 1011.45 1011.45 1011.36 1011.21 1011.08 1010.98
1005.34 1005.08 1004.90 1004.89 1005.11 1005.59 1006.30 1007.17 1008.07 1008.85 1009.36 1009.48 1009.18 1008.45 1007.40 1006.16 1004.91 1003.83 1003.06 1002.69 1002.72 1003.11 1003.77 1004.57 1005.39 1006.14 1006.75 1007.21 1007.56 1007.84 1008.12 1008.44 1008.83 1009.28 1009.76 1010.21 1010.60 1010.87 1011.01 1011.04 1010.98 1010.88 1010.78 1010.72
1005.38 1005.18 1005.07 1005.11 1005.35 1005.81 1006.47 1007.23 1008.00 1008.63 1009.00 1009.03 1008.66 1007.92 1006.89 1005.71 1004.54 1003.52 1002.80 1002.43 1002.44 1002.79 1003.39 1004.13 1004.90 1005.62 1006.23 1006.72 1007.11 1007.45 1007.77 1008.13 1008.53 1008.97 1009.42 1009.84 1010.20 1010.45 1010.60 1010.64 1010.61 1010.56 1010.51 1010.50
1005.60 1005.47 1005.42 1005.49 1005.72 1006.10 1006.61 1007.20 1007.76 1008.19 1008.39 1008.30 1007.89 1007.17 1006.23 1005.17 1004.14 1003.26 1002.63 1002.32 1002.33 1002.63 1003.16 1003.82 1004.53 1005.20 1005.80 1006.31 1006.75 1007.14 1007.52 1007.92 1008.34 1008.78 1009.21 1009.59 1009.90 1010.13 1010.25 1010.30 1010.31 1010.29 1010.30 1010.35
1005.99 1005.95 1005.95 1006.02 1006.19 1006.43 1006.75 1007.09 1007.38 1007.56 1007.57 1007.36 1006.90 1006.24 1005.43 1004.55 1003.71 1003.01 1002.51 1002.28 1002.31 1002.57 1003.03 1003.60 1004.22 1004.84 1005.42 1005.96 1006.44 1006.90 1007.36 1007.81 1008.26 1008.70 1009.10 1009.45 1009.71 1009.89 1010.00 1010.05 1010.07 1010.11 1010.18 1010.29
1006.51 1006.54 1006.59 1006.64 1006.71 1006.78 1006.86 1006.91 1006.90 1006.81 1006.60 1006.25 1005.77 1005.17 1004.51 1003.83 1003.21 1002.71 1002.37 1002.24 1002.29 1002.53 1002.91 1003.39 1003.93 1004.49 1005.04 1005.59 1006.13 1006.67 1007.19 1007.71 1008.21 1008.66 1009.05 1009.36 1009.58 1009.72 1009.80 1009.85 1009.89 1009.97 1010.10 1010.28
1007.09 1007.19 1007.26 1007.27 1007.22 1007.10 1006.92 1006.67 1006.35 1005.97 1005.54 1005.06 1004.54 1004.01 1003.49 1003.01 1002.61 1002.32 1002.15 1002.11 1002.19 1002.40 1002.71 1003.09 1003.54 1004.03 1004.56 1005.13 1005.72 1006.32 1006.93 1007.52 1008.07 1008.55 1008.94 1009.23 1009.43 1009.54 1009.60 1009.65 1009.71 1009.83 1010.01 1010.26
1007.65 1007.80 1007.87 1007.83 1007.65 1007.34 1006.90 1006.36 1005.75 1005.10 1004.46 1003.86 1003.31 1002.83 1002.44 1002.15 1001.95 1001.83 1001.80 1001.85 1001.96 1002.13 1002.35 1002.64 1002.99 1003.42 1003.91 1004.48 1005.11 1005.78 1006.47 1007.13 1007.74 1008.27 1008.68 1008.98 1009.17 1009.27 1009.33 1009.39 1009.48 1009.64 1009.87 1010.17
1008.13 1008.30 1008.35 1008.24 1007.94 1007.44 1006.78 1005.98 1005.12 1004.25 1003.44 1002.73 1002.15 1001.73 1001.45 1001.30 1001.27 1001.30 1001.38 1001.48 1001.59 1001.71 1001.85 1002.03 1002.28 1002.62 1003.07 1003.62 1004.27 1005.00 1005.75 1006.49 1007.16 1007.74 1008.20 1008.53 1008.74 1008.87 1008.96 1009.04 1009.17 1009.36 1009.63 1009.96
1008.48 1008.62 1008.63 1008.44 1008.02 1007.38 1006.55 1005.57 1004.52 1003.50 1002.56 1001.79 1001.20 1000.82 1000.63 1000.61 1000.69 1000.82 1000.97 1001.09 1001.18 1001.23 1001.27 1001.34 1001.47 1001.72 1002.09 1002.61 1003.25 1004.00 1004.80 1005.59 1006.33 1006.97 1007.49 1007.88 1008.15 1008.33 1008.46 1008.60 1008.77 1009.00 1009.30 1009.66
1008.67 1008.75 1008.69 1008.42 1007.92 1007.18 1006.24 1005.15 1004.01 1002.91 1001.93 1001.14 1000.57 1000.25 1000.13 1000.19 1000.35 1000.54 1000.72 1000.83 1000.86 1000.83 1000.76 1000.70 1000.71 1000.84 1001.12 1001.57 1002.18 1002.91 1003.73 1004.56 1005.35 1006.05 1006.64 1007.10 1007.45 1007.71 1007.92 1008.12 1008.35 1008.63 1008.95 1009.32
1008.72 1008.70 1008.55 1008.22 1007.66 1006.88 1005.90 1004.80 1003.66 1002.57 1001.61 1000.86 1000.35 1000.08 1000.03 1000.15 1000.35 1000.57 1000.74 1000.81 1000.78 1000.65 1000.47 1000.28 1000.16 1000.17 1000.34 1000.69 1001.24 1001.93 1002.73 1003.57 1004.39 1005.14 1005.79 1006.33 1006.77 1007.12 1007.41 1007.69 1007.98 1008.30 1008.64 1009.01
1008.64 1008.51 1008.28 1007.89 1007.32 1006.55 1005.62 1004.58 1003.52 1002.51 1001.65 1000.99 1000.57 1000.37 1000.38 1000.54 1000.76 1000.97 1001.11 1001.13 1001.03 1000.81 1000.52 1000.21 999.97 999.86 999.91 1000.16 1000.61 1001.23 1001.98 1002.79 1003.61 1004.40 1005.10 1005.71 1006.22 1006.66 1007.04 1007.39 1007.74 1008.08 1008.44 1008.79
1008.50 1008.26 1007.95 1007.53 1006.97 1006.26 1005.43 1004.53 1003.61 1002.76 1002.04 1001.51 1001.18 1001.06 1001.12 1001.30 1001.52 1001.71 1001.81 1001.78 1001.61 1001.32 1000.94 1000.55 1000.22 1000.00 999.94 1000.09 1000.44 1000.96 1001.63 1002.39 1003.18 1003.96 1004.68 1005.33 1005.91 1006.41 1006.85 1007.26 1007.64 1008.01 1008.35 1008.67
1008.34 1008.00 1007.64 1007.21 1006.70 1006.09 1005.40 1004.66 1003.93 1003.26 1002.71 1002.31 1002.09 1002.04 1002.13 1002.31 1002.51 1002.66 1002.72 1002.65 1002.44 1002.11 1001.69 1001.26 1000.86 1000.58 1000.45 1000.50 1000.75 1001.18 1001.75 1002.43 1003.16 1003.89 1004.60 1005.25 1005.84 1006.38 1006.85 1007.29 1007.68 1008.04 1008.36 1008.64
1008.19 1007.78 1007.38 1006.98 1006.53 1006.05 1005.51 1004.96 1004.42 1003.93 1003.54 1003.27 1003.13 1003.12 1003.22 1003.37 1003.54 1003.65 1003.68 1003.58 1003.36 1003.03 1002.61 1002.18 1001.79 1001.48 1001.31 1001.31 1001.48 1001.81 1002.29 1002.87 1003.50 1004.16 1004.81 1005.42 1005.99 1006.51 1006.97 1007.39 1007.76 1008.09 1008.37 1008.60
1008.07 1007.62 1007.22 1006.85 1006.50 1006.13 1005.76 1005.38 1005.01 1004.68 1004.41 1004.23 1004.13 1004.13 1004.20 1004.31 1004.41 1004.48 1004.47 1004.37 1004.17 1003.87 1003.52 1003.15 1002.80 1002.53 1002.37 1002.35 1002.47 1002.72 1003.11 1003.58 1004.10 1004.66 1005.21 1005.75 1006.25 1006.70 1007.11 1007.48 1007.80 1008.06 1008.28 1008.45
1007.96 1007.51 1007.14 1006.83 1006.57 1006.32 1006.08 1005.85 1005.61 1005.39 1005.20 1005.05 1004.96 1004.92 1004.92 1004.95 1004.98 1004.99 1004.96 1004.86 1004.70 1004.48 1004.22 1003.95 1003.71 1003.52 1003.41 1003.40 1003.50 1003.71 1004.01 1004.38 1004.79 1005.23 1005.66 1006.09 1006.48 1006.84 1007.16 1007.44 1007.67 1007.86 1008.00 1008.10
Thickness
5852 5838 5832 5842 5851 5848 5848 5843 5840 5854 5873 5863 5852 5852 5856 5865 5862 5857 5853 5851 5847 5845 5847 5847 5844 5841 5836 5831 5827 5823 5819 5817 5814 5810 5807 5803 5801 5801 5800 5798 5795 5793 5791 5789
5838 5832 5850 5860 5861 5856 5850 5842 5844 5854 5871 5864 5853 5852 5859 5864 5861 5861 5856 5852 5851 5847 5846 5844 5842 5840 5835 5831 5827 5823 5819 5817 5814 5811 5808 5806 5803 5801 5799 5797 5794 5792 5789 5787
5829 5844 5861 5856 5852 5849 5847 5845 5846 5846 5859 5864 5851 5839 5848 5858 5864 5863 5862 5860 5857 5851 5845 5842 5841 5839 5836 5831 5828 5825 5820 5817 5814 5812 5809 5806 5802 5799 5797 5793 5791 5790 5788 5785
5840 5854 5856 5850 5848 5850 5837 5856 5856 5852 5842 5834 5841 5814 5834 5850 5851 5855 5857 5858 5856 5854 5851 5846 5842 5839 5837 5834 5832 5827 5822 5818 5815 5812 5808 5802 5797 5792 5792 5791 5790 5787 5785 5782
5836 5850 5847 5844 5852 5857 5850 5863 5855 5847 5838 5829 5833 5818 5827 5848 5841 5848 5855 5857 5857 5855 5852 5848 5845 5841 5840 5837 5833 5827 5822 5817 5814 5811 5807 5801 5798 5795 5794 5792 5788 5785 5782 5780
5845 5861 5861 5858 5866 5866 5864 5856 5847 5841 5828 5802 5820 5814 5816 5841 5845 5850 5854 5856 5856 5856 5854 5850 5847 5843 5839 5837 5833 5827 5820 5815 5813 5810 5806 5801 5797 5794 5790 5787 5784 5781 5779 5777
5830 5846 5863 5867 5852 5857 5854 5831 5804 5792 5790 5796 5828 5823 5823 5848 5859 5858 5853 5853 5857 5856 5852 5847 5843 5839 5836 5833 5830 5826 5819 5813 5811 5808 5805 5801 5797 5793 5788 5785 5781 5778 5775 5772
5812 5818 5848 5858 5850 5841 5844 5834 5802 5783 5787 5804 5822 5817 5833 5859 5862 5863 5861 5859 5856 5853 5851 5847 5843 5838 5835 5832 5828 5824 5818 5812 5809 5805 5802 5799 5795 5792 5788 5784 5781 5777 5773 5770
5817 5820 5853 5860 5863 5855 5838 5837 5846 5825 5813 5800 5809 5823 5834 5850 5853 5856 5857 5855 5850 5849 5847 5844 5842 5838 5834 5830 5827 5823 5817 5811 5807 5804 5800 5796 5793 5789 5785 5782 5779 5774 5771 5768
5831 5816 5838 5855 5858 5858 5853 5847 5837 5821 5793 5785 5797 5804 5812 5827 5838 5846 5845 5845 5846 5847 5844 5842 5840 5837 5833 5830 5827 5823 5817 5811 5807 5803 5799 5794 5790 5786 5782 5778 5774 5771 5767 5764
5836 5817 5824 5838 5834 5833 5840 5836 5833 5826 5819 5795 5781 5793 5834 5834 5836 5837 5842 5843 5843 5844 5842 5839 5837 5835 5831 5828 5824 5819 5814 5809 5804 5800 5796 5792 5787 5783 5779 5774 5771 5767 5764 5760
5834 5822 5811 5827 5852 5860 5846 5838 5832 5812 5806 5811 5798 5799 5845 5843 5841 5838 5838 5840 5841 5840 5838 5836 5833 5829 5826 5822 5818 5814 5810 5805 5801 5798 5793 5788 5784 5780 5775 5771 5768 5764 5760 5757
5823 5809 5791 5801 5823 5837 5835 5837 5836 5831 5819 5807 5792 5797 5841 5839 5834 5835 5834 5832 5832 5831 5829 5828 5825 5821 5818 5816 5812 5808 5804 5801 5798 5794 5789 5784 5779 5775 5771 5768 5764 5760 5756 5752
5823 5805 5796 5788 5800 5814 5816 5824 5829 5822 5806 5800 5800 5804 5821 5826 5824 5827 5826 5825 5824 5821 5820 5817 5815 5812 5811 5809 5805 5802 5799 5797 5793 5788 5783 5778 5774 5771 5768 5764 5760 5755 5751 5746
5817 5801 5806 5812 5820 5822 5819 5820 5823 5817 5814 5805 5805 5809 5816 5820 5818 5819 5820 5817 5815 5812 5811 5809 5806 5804 5802 5800 5798 5796 5793 5791 5787 5782 5777 5772 5769 5766 5762 5758 5754 5750 5745 5742
5809 5798 5799 5800 5814 5819 5815 5819 5821 5819 5820 5816 5810 5803 5819 5821 5818 5813 5812 5807 5803 5802 5802 5802 5799 5797 5795 5792 5790 5789 5786 5783 5781 5776 5771 5768 5763 5759 5755 5751 5747 5743 5739 5736
5798 5788 5780 5780 5801 5804 5794 5811 5816 5816 5819 5815 5800 5801 5812 5805 5804 5803 5804 5801 5798 5795 5795 5794 5793 5791 5789 5787 5785 5781 5779 5777 5773 5768 5765 5761 5757 5752 5748 5745 5741 5736 5733 5729
5790 5782 5779 5777 5779 5763 5797 5826 5822 5812 5807 5813 5807 5805 5805 5800 5800 5801 5801 5796 5792 5789 5788 5787 5788 5785 5784 5783 5780 5777 5774 5770 5765 5761 5757 5754 5750 5746 5742 5738 5734 5731 5728 5725
5798 5781 5770 5766 5760 5770 5792 5807 5807 5796 5790 5802 5798 5797 5799 5799 5792 5788 5793 5792 5788 5785 5784 5783 5783 5781 5779 5776 5774 5770 5765 5762 5758 5754 5751 5748 5744 5740 5736 5731 5728 5726 5722 5719
5789 5784 5766 5760 5751 5750 5766 5793 5803 5792 5771 5790 5790 5784 5786 5784 5766 5766 5781 5782 5781 5779 5777 5776 5775 5774 5770 5769 5768 5762 5758 5754 5749 5747 5744 5742 5738 5733 5729 5726 5723 5720 5717 5714
5761 5760 5755 5752 5749 5752 5771 5787 5789 5756 5750 5776 5780 5778 5775 5768 5765 5767 5772 5771 5769 5768 5768 5767 5765 5762 5760 5760 5758 5752 5748 5745 5744 5741 5738 5734 5731 5727 5724 5720 5717 5714 5711 5708
5750 5746 5745 5746 5738 5732 5763 5768 5755 5750 5765 5768 5769 5768 5765 5762 5762 5761 5759 5758 5756 5756 5757 5757 5753 5750 5750 5749 5746 5740 5737 5738 5737 5733 5729 5726 5723 5721 5719 5714 5710 5707 5704 5700
5748 5747 5745 5740 5732 5743 5755 5754 5755 5759 5755 5756 5757 5757 5755 5751 5748 5747 5746 5745 5746 5745 5745 5744 5742 5738 5737 5737 5735 5729 5729 5729 5727 5723 5719 5717 5715 5712 5710 5706 5702 5699 5696 5693
5742 5751 5741 5732 5734 5740 5745 5747 5748 5748 5746 5746 5747 5747 5745 5740 5739 5737 5736 5734 5733 5733 5732 5730 5729 5725 5724 5724 5724 5721 5720 5719 5716 5711 5708 5707 5705 5702 5700 5698 5696 5692 5689 5686
5724 5730 5727 5721 5726 5730 5732 5734 5736 5737 5738 5736 5736 5737 5735 5732 5729 5727 5724 5723 5722 5721 5720 5719 5716 5714 5713 5713 5712 5712 5710 5707 5704 5700 5698 5697 5696 5694 5691 5689 5687 5685 5682 5679
5719 5718 5712 5709 5718 5717 5717 5725 5727 5725 5723 5723 5723 5722 5723 5722 5719 5717 5715 5714 5711 5709 5709 5707 5706 5704 5703 5703 5701 5700 5700 5697 5693 5691 5689 5688 5687 5685 5683 5681 5678 5676 5673 5670